Location: Wyoming Infrared Observatory
(41.0971°N, 105.9765°W)
Time: 17:04:30
(UTC-06:00)

Amateur Radio Satellites - All Passes

Search period start: 22 October 2014 16:34
Search period end: 23 October 2014 16:34
Location: Wyoming Infrared Observatory, 41.0971°N, 105.9765°W

Satellite Date Start Highest point End Downlink Frequencies (MHz)
Time Altitude Azimuth
Gurwin Techsat 1B 22 Oct 16:41:58 16:43:36 11° 272° (W) 16:45:14 435.225 FM
TMSAT-1 22 Oct 16:54:38 16:56:28 12° 272° (W) 16:58:18 436.925 FM
AO-7 22 Oct 17:19:21 17:27:07 44° 260° (W) 17:34:57 29.400 - 29.500 MHz
ISS 22 Oct 17:37:13 17:39:02 14° 3° (N) 17:40:50 145.800 FM
Hamsat 22 Oct 17:45:10 17:49:15 51° 74° (ENE) 17:53:20 145.90 MHz
JAS-2 22 Oct 17:53:14 17:59:01 88° 256° (WSW) 18:05:39 435.800 - 435.900 CW/SSB, 435.910 FM
UOSAT-12 22 Oct 17:54:37 17:55:55 11° 327° (NNW) 17:57:12 437.025 FM, 437.400 FM
Saudisat 1A 22 Oct 17:58:05 18:02:18 44° 243° (WSW) 18:06:30 436.775 MHz
KITSAT 1 22 Oct 17:58:37 17:59:51 10° 1° (N) 18:01:05 435.175 FM
OPAL 22 Oct 18:04:42 18:09:32 49° 102° (ESE) 18:14:18 ?
Uosat F 22 Oct 18:14:01 18:15:59 12° 270° (W) 18:17:59 435.120 FM
HO-68 22 Oct 18:56:29 18:57:57 11° 48° (NE) 18:59:25 435.675 MHz FM
SO-67 22 Oct 19:06:10 19:09:29 50° 75° (ENE) 19:12:50 435.3500 MHz FM
ISS 22 Oct 19:13:41 19:16:35 26° 23° (NNE) 19:19:29 145.800 FM
AO-40 22 Oct 19:16:01 01:49:49 45° 176° (S) 03:54:38 Beacon 2401.320
Hamsat 22 Oct 19:23:30 19:25:30 13° 269° (W) 19:27:30 145.90 MHz
JAS-2 22 Oct 19:43:09 19:45:17 12° 277° (W) 19:47:29 435.800 - 435.900 CW/SSB, 435.910 FM
OPAL 22 Oct 19:44:27 19:48:03 21° 299° (WNW) 19:51:38 ?
STRAND 1 22 Oct 19:45:03 19:50:09 58° 101° (E) 19:55:12 ?
KITSAT 1 22 Oct 19:53:42 19:59:17 20° 32° (NNE) 20:04:52 435.175 FM
HO-68 22 Oct 20:37:11 20:44:06 55° 68° (ENE) 20:51:03 435.675 MHz FM
UKube-1 22 Oct 20:45:36 20:48:19 17° 64° (ENE) 20:51:03 145.840 MHz, 145.915 MHz
ISS 22 Oct 20:50:11 20:53:26 48° 221° (SW) 20:56:39 145.800 FM
RS-15 22 Oct 20:53:02 20:58:23 15° 97° (E) 21:03:42 29.354 - 29.394 USB, Beacon 29.352 USB
FUNcube-1 22 Oct 21:21:12 21:23:53 16° 64° (ENE) 21:26:33 145.950 - 145.970 MHz USB
SO-50 22 Oct 21:24:23 21:28:06 21° 43° (NE) 21:31:50 436.795 FM
STRAND 1 22 Oct 21:25:24 21:28:51 18° 298° (WNW) 21:32:18 ?
Oscar 11 22 Oct 21:27:43 21:31:43 38° 71° (ENE) 21:35:44 145.825 FM, Beacon 2401.500 USB
KITSAT 1 22 Oct 21:48:20 21:56:23 66° 56° (NE) 22:04:23 435.175 FM
ZACube-1 22 Oct 22:10:04 22:14:29 48° 73° (ENE) 22:18:53 437.345 MHz
UKube-1 22 Oct 22:19:55 22:24:07 47° 260° (W) 22:28:21 145.840 MHz, 145.915 MHz
HO-68 22 Oct 22:26:07 22:32:05 28° 265° (W) 22:38:08 435.675 MHz FM
FUNcube-1 22 Oct 22:55:17 22:59:48 56° 260° (W) 23:04:18 145.950 - 145.970 MHz USB
RS-15 22 Oct 22:57:43 23:08:39 74° 117° (ESE) 23:19:31 29.354 - 29.394 USB, Beacon 29.352 USB
UOSAT-12 22 Oct 23:00:38 23:03:57 18° 41° (NE) 23:07:13 437.025 FM, 437.400 FM
SO-50 22 Oct 23:04:15 23:09:01 59° 241° (WSW) 23:13:49 436.795 FM
Oscar 11 22 Oct 23:04:59 23:08:01 19° 267° (W) 23:11:04 145.825 FM, Beacon 2401.500 USB
KITSAT 1 22 Oct 23:44:38 23:51:09 28° 255° (WSW) 23:57:40 435.175 FM
ZACube-1 22 Oct 23:48:11 23:51:06 17° 268° (W) 23:54:01 437.345 MHz
MaSat-1 23 Oct 00:04:48 00:08:41 35° 111° (ESE) 00:12:16 437.345 MHz
UOSAT-12 23 Oct 00:39:53 00:44:35 69° 240° (WSW) 00:49:11 437.025 FM, 437.400 FM
JAS-1B 23 Oct 01:09:41 01:12:36 13° 91° (E) 01:15:40 435.800 - 435.900 CW/SSB
RS-15 23 Oct 01:12:03 01:21:56 37° 322° (NW) 01:31:56 29.354 - 29.394 USB, Beacon 29.352 USB
MaSat-1 23 Oct 01:41:21 01:44:26 20° 304° (NW) 01:47:19 437.345 MHz
Oscar 10/S400 23 Oct 01:47:54 02:44:58 19° 244° (WSW) 04:48:58 145.825 - 145.975 CW/USB, Beacon 145.810 USB
Oscar 19 23 Oct 01:59:50 02:04:22 31° 96° (E) 02:08:52 437.125 CW, 437.150 USB
AO-27 23 Oct 02:13:14 02:16:38 17° 92° (E) 02:20:01 436.795 MHz FM
Oscar 16 23 Oct 02:44:50 02:50:00 86° 104° (ESE) 02:55:07 437.025 USB, Beacon 2401.1428
AO-Echo 23 Oct 02:56:16 03:01:31 59° 101° (E) 03:06:45 ?
JAS-1B 23 Oct 02:57:10 03:03:46 82° 104° (ESE) 03:11:40 435.800 - 435.900 CW/SSB
Uribyol 2 23 Oct 03:00:46 03:05:51 51° 100° (E) 03:10:53 436.500 FM
ITAMSAT 1 23 Oct 03:06:14 03:11:22 54° 100° (E) 03:16:27 435.822 SSB
PCSat 23 Oct 03:07:52 03:09:12 11° 101° (ESE) 03:10:32 145.825 MHz
Gurwin Techsat 1B 23 Oct 03:14:20 03:19:10 34° 97° (E) 03:23:57 435.225 FM
TMSAT-1 23 Oct 03:26:56 03:31:43 33° 96° (E) 03:36:27 436.925 FM
RS-15 23 Oct 03:31:14 03:38:46 20° 356° (N) 03:46:25 29.354 - 29.394 USB, Beacon 29.352 USB
AO-7 23 Oct 03:32:30 03:34:11 11° 86° (E) 03:35:53 29.400 - 29.500 MHz
Oscar 19 23 Oct 03:39:11 03:43:39 31° 293° (WNW) 03:48:06 437.125 CW, 437.150 USB
OPAL 23 Oct 03:44:26 03:46:25 12° 56° (ENE) 03:48:23 ?
AO-27 23 Oct 03:51:22 03:56:30 58° 288° (WNW) 04:01:37 436.795 MHz FM
Sapphire 23 Oct 04:23:48 04:29:00 52° 113° (ESE) 04:34:16 437.095 MHz 1200 baud AX-25 AFSK
Oscar 16 23 Oct 04:26:31 04:28:36 13° 301° (WNW) 04:30:41 437.025 USB, Beacon 2401.1428
AO-Echo 23 Oct 04:36:09 04:39:47 19° 297° (WNW) 04:43:26 ?
Uosat F 23 Oct 04:40:12 04:44:11 23° 94° (E) 04:48:08 435.120 FM
Uribyol 2 23 Oct 04:41:08 04:44:56 21° 297° (WNW) 04:48:43 436.500 FM
PCSat 23 Oct 04:46:20 04:51:45 87° 118° (ESE) 04:57:12 145.825 MHz
ITAMSAT 1 23 Oct 04:46:44 04:50:26 20° 297° (WNW) 04:54:08 435.822 SSB
JAS-1B 23 Oct 04:49:37 04:53:53 19° 299° (WNW) 04:58:34 435.800 - 435.900 CW/SSB
Gurwin Techsat 1B 23 Oct 04:54:25 04:59:01 31° 293° (WNW) 05:03:36 435.225 FM
JAS-2 23 Oct 05:03:27 05:08:16 17° 87° (E) 05:13:05 435.800 - 435.900 CW/SSB, 435.910 FM
TMSAT-1 23 Oct 05:06:55 05:11:33 31° 293° (WNW) 05:16:10 436.925 FM
OPAL 23 Oct 05:19:22 05:24:32 88° 74° (ENE) 05:29:41 ?
AO-7 23 Oct 05:20:09 05:28:27 66° 104° (ESE) 05:36:42 29.400 - 29.500 MHz
STRAND 1 23 Oct 05:26:21 05:27:37 11° 57° (ENE) 05:28:53 ?
RS-15 23 Oct 05:46:39 05:56:09 31° 32° (NNE) 06:05:54 29.354 - 29.394 USB, Beacon 29.352 USB
Sapphire 23 Oct 06:08:17 06:12:43 25° 312° (NW) 06:17:11 437.095 MHz 1200 baud AX-25 AFSK
Uosat F 23 Oct 06:18:22 06:23:06 41° 291° (WNW) 06:27:48 435.120 FM
PCSat 23 Oct 06:32:25 06:35:54 17° 318° (NW) 06:39:24 145.825 MHz
JAS-2 23 Oct 06:46:20 06:54:07 87° 104° (ESE) 07:01:58 435.800 - 435.900 CW/SSB, 435.910 FM
STRAND 1 23 Oct 07:00:49 07:05:57 82° 75° (ENE) 07:11:07 ?
OPAL 23 Oct 07:03:05 07:04:01 10° 269° (W) 07:04:58 ?
Hamsat 23 Oct 07:06:28 07:10:40 75° 284° (WNW) 07:14:51 145.90 MHz
AO-7 23 Oct 07:13:46 07:20:38 30° 303° (WNW) 07:27:32 29.400 - 29.500 MHz
RS-15 23 Oct 07:59:02 08:10:16 86° 58° (ENE) 08:21:59 29.354 - 29.394 USB, Beacon 29.352 USB
SO-67 23 Oct 08:02:12 08:05:38 61° 100° (E) 08:09:02 435.3500 MHz FM
Saudisat 1A 23 Oct 08:04:03 08:08:15 47° 117° (ESE) 08:12:29 436.775 MHz
JAS-2 23 Oct 08:32:45 08:38:13 22° 302° (WNW) 08:43:47 435.800 - 435.900 CW/SSB, 435.910 FM
STRAND 1 23 Oct 08:44:12 08:45:45 11° 271° (W) 08:47:17 ?
Saudisat 1A 23 Oct 09:44:37 09:48:02 22° 315° (NW) 09:51:29 436.775 MHz
MaSat-1 23 Oct 09:51:17 09:53:54 53° 62° (ENE) 09:56:17 437.345 MHz
PANSAT 23 Oct 09:51:18 09:52:52 12° 177° (S) 09:54:26 not established
HO-68 23 Oct 09:52:15 09:59:21 57° 102° (ESE) 10:06:22 435.675 MHz FM
UKube-1 23 Oct 10:08:22 10:12:09 28° 96° (E) 10:15:54 145.840 MHz, 145.915 MHz
RS-15 23 Oct 10:12:59 10:21:18 25° 258° (WSW) 10:29:55 29.354 - 29.394 USB, Beacon 29.352 USB
FUNcube-1 23 Oct 10:45:04 10:48:43 27° 95° (E) 10:52:16 145.950 - 145.970 MHz USB
Oscar 11 23 Oct 10:51:02 10:55:22 80° 102° (ESE) 10:59:40 145.825 FM, Beacon 2401.500 USB
PANSAT 23 Oct 11:31:39 11:32:14 10° 190° (S) 11:32:49 not established
ZACube-1 23 Oct 11:35:43 11:40:00 78° 284° (WNW) 11:44:11 437.345 MHz
HO-68 23 Oct 11:40:39 11:46:37 29° 300° (WNW) 11:52:34 435.675 MHz FM
UKube-1 23 Oct 11:44:36 11:48:14 26° 292° (WNW) 11:51:52 145.840 MHz, 145.915 MHz
PCSat 23 Oct 11:52:52 11:55:23 13° 38° (NE) 11:57:53 145.825 MHz
Oscar 10/S400 23 Oct 12:02:42 12:20:19 23° 151° (SSE) 12:33:56 145.825 - 145.975 CW/USB, Beacon 145.810 USB
KITSAT 1 23 Oct 12:16:28 12:24:01 46° 111° (ESE) 12:31:35 435.175 FM
FUNcube-1 23 Oct 12:21:30 12:25:00 25° 292° (WNW) 12:28:26 145.950 - 145.970 MHz USB
Oscar 16 23 Oct 12:25:01 12:28:06 16° 61° (ENE) 12:31:10 437.025 USB, Beacon 2401.1428
Uribyol 2 23 Oct 12:44:22 12:45:06 10° 57° (ENE) 12:45:51 436.500 FM
ITAMSAT 1 23 Oct 12:49:22 12:50:41 11° 57° (ENE) 12:52:00 435.822 SSB
Sapphire 23 Oct 13:11:49 13:16:58 42° 54° (NE) 13:22:05 437.095 MHz 1200 baud AX-25 AFSK
Oscar 19 23 Oct 13:16:31 13:21:25 45° 70° (ENE) 13:26:18 437.125 CW, 437.150 USB
SO-50 23 Oct 13:19:03 13:23:19 46° 117° (ESE) 13:27:43 436.795 FM
AO-27 23 Oct 13:31:03 13:35:22 27° 66° (ENE) 13:39:42 436.795 MHz FM
ISS 23 Oct 13:31:55 13:35:10 55° 140° (SE) 13:38:27 145.800 FM
PCSat 23 Oct 13:34:25 13:39:51 68° 59° (ENE) 13:45:14 145.825 MHz
JAS-1B 23 Oct 13:43:49 13:49:48 67° 73° (ENE) 13:55:25 435.800 - 435.900 CW/SSB
Oscar 16 23 Oct 14:01:45 14:06:53 67° 258° (WSW) 14:12:02 437.025 USB, Beacon 2401.1428
AO-Echo 23 Oct 14:09:09 14:13:59 73° 74° (ENE) 14:19:01 ?
KITSAT 1 23 Oct 14:11:47 14:19:25 44° 311° (NW) 14:27:06 435.175 FM
Uribyol 2 23 Oct 14:18:27 14:23:39 77° 74° (ENE) 14:28:54 436.500 FM
ITAMSAT 1 23 Oct 14:24:06 14:29:18 81° 75° (ENE) 14:34:33 435.822 SSB
AO-7 23 Oct 14:29:54 14:35:26 20° 51° (NE) 14:40:58 29.400 - 29.500 MHz
Gurwin Techsat 1B 23 Oct 14:35:15 14:40:23 53° 72° (ENE) 14:45:34 435.225 FM
TMSAT-1 23 Oct 14:47:30 14:52:36 51° 71° (ENE) 14:57:45 436.925 FM
UOSAT-12 23 Oct 14:50:59 14:55:12 36° 115° (ESE) 14:59:31 437.025 FM, 437.400 FM
Sapphire 23 Oct 14:55:37 15:00:12 28° 252° (WSW) 15:04:45 437.095 MHz 1200 baud AX-25 AFSK
Oscar 19 23 Oct 14:57:03 15:00:57 21° 267° (W) 15:04:51 437.125 CW, 437.150 USB
SO-50 23 Oct 15:00:27 15:04:06 23° 316° (NW) 15:07:50 436.795 FM
ISS 23 Oct 15:09:14 15:12:03 25° 338° (NNW) 15:14:53 145.800 FM
AO-27 23 Oct 15:09:53 15:14:41 38° 262° (W) 15:19:33 436.795 MHz FM
PCSat 23 Oct 15:19:22 15:22:39 17° 256° (WSW) 15:25:56 145.825 MHz
JAS-1B 23 Oct 15:37:42 15:41:00 15° 268° (W) 15:44:12 435.800 - 435.900 CW/SSB
AO-Echo 23 Oct 15:51:26 15:53:20 12° 272° (W) 15:55:16 ?
Uosat F 23 Oct 15:53:18 15:57:43 32° 67° (ENE) 16:02:10 435.120 FM
Uribyol 2 23 Oct 16:01:27 16:03:41 13° 271° (W) 16:05:56 436.500 FM
ITAMSAT 1 23 Oct 16:07:32 16:09:24 12° 271° (W) 16:11:16 435.822 SSB
KITSAT 1 23 Oct 16:13:00 16:17:17 15° 337° (NNW) 16:21:34 435.175 FM
Gurwin Techsat 1B 23 Oct 16:16:58 16:20:40 19° 268° (W) 16:24:24 435.225 FM
